{"data":{"norad_id":61200,"intl_designator":"2024-171A","name":"STARLINK-11209 [DTC]","alt_names":[],"object_type":"PAYLOAD","status":"ACTIVE","operator":null,"country":"US","launch_date":"2024-09-20","launch_site_code":"AFWTR","launch_vehicle":null,"mission":null,"orbit_class":"UNKNOWN","rcs_meters":null,"size_class":null,"mass_kg":null,"dimensions":null,"purposes":["comms"],"wikipedia_slug":null,"has_3d_model":false,"image_url":null,"decayed_at":null,"tle_current":{"epoch":"2026-09-21T18:36:24.928128Z","epoch_age_seconds":81975,"freshness":"FRESH","line1":"1 61200U 24171A   26264.77528852  .00001132  00000+0  14202-4 0  9997","line2":"2 61200  53.1606 289.8244 0000675 125.9824 234.1257 15.69700223116106","mean_motion":15.69700223,"eccentricity":6.75e-5,"inclination_deg":53.1606,"raan_deg":289.8244,"arg_perigee_deg":125.9824,"mean_anomaly_deg":234.1257,"bstar":1.4202e-5,"rev_number":11610,"period_min":91.737261605779,"perigee_km":359.29992090488,"apogee_km":360.20953628824,"semimajor_km":6737.8917285966,"source":"CELESTRAK","updated_at":"2026-09-22T09:00:49.338009Z"}}}